STARLINK-35148, 65844

Orbit data source: Space-Track

STARLINK-35148, 65844 is a payload satellite owned by SpaceX/Seattle (US) in LEO that was launched on Mon, 29 Sep 2025 UTC via an FALCON 9 launch vehicle from the Air Force Western Test Range (AFWTR). Payload-class satellites include a variety of spacecraft equipped with specific instruments for various scientific and technological missions. These include communications satellites like Starlink; space stations such as the ISS; scientific satellites like the Hubble; Earth observation satellites from companies like Planet Labs, Umbra, and HawkEye 360; GPS; miniature CubeSats for education and research; and military/defense satellites.

Loading next visibility...
Identifier
65844, 2025-221X
Orbit
LEO
Country
Flag of USUS
Related business
Manufacturer
SpaceX/Seattle
Mission
Operational Commercial Communications
Bus & Motor
STARLINK V2MO, Unknown motor
Mass
575 kg wet, ~530 kg dry
Launch date (UTC)
2025-09-29 (2 months ago)
Launch vehicle
FALCON 9
Launch site
Air Force Western Test Range (AFWTR)
Object type
Payload
Rocket body
Debris
Shape & HBR
Box + 2 Pan, 17.7 m
Radar Cross Section
36.964 m²

Expand to show TLE details & history
Last TLE update: 22 hours ago

TLE from 22 hours ago
0 STARLINK-35148
1 65844U 25221X   25340.24164543  .00073854  00000-0  24796-2 0  9999
2 65844  53.1585 162.5735 0000955  83.9393 276.1716 15.30218566 10423
Epoch: 2025-12-06T05:47Z
TLE epoch observation values (Epoch: 2025-12-06T05:47:58.165Z)
Latitude
-0.00005°
Longitude
0.3089°
Altitude
475.989 km
Speed
7.629 km/s
True Right ascension
10h 50m 17s
True Declination
0° 00' 00"
Sunlit
Object was in daylight at epoch
Visualization orbit readout
Latitude
Unknown
Longitude
Unknown
Altitude
Unknown
Speed
Unknown
Apparent Right ascension
Unknown
Apparent Declination
Unknown
Sunlit
N/A
Visualization observer readout
Local Sidereal Time
02:15:27
Azimuth
Unknown
Elevation
Unknown
Doppler factor
Unknown
Orbital elements
Apogee altitude
476.071 km
Perigee altitude
474.762 km
Semi-major axis
6,853.553 km
Eccentricity
0.0001
Inclination
53.1585°
RAAN
162.5735°
Arg. of periapsis
83.9393°
True anomaly
276.16072°
Mean anomaly
276.1716°
Eccentric anomaly
276.16616°
Mean motion
3.82534 °/min
Orbital period
94.11 mins
BSTAR
0.0024796
Loading maneuver chart data...
Computing Atmospheric mass density...
Loading historical data...
Loading historical data...
Loading historical data...
Loading historical data...
Loading historical data...
Loading historical data...
Loading historical data...

Documentation

Showing up to 5 results
|